Location: Unspecified
(0.0000°N, 0.0000°E)
Time: 22:59:26
(UTC+02:00)

Orbus 21S - Visible Passes

Search period start: 18 April 2014 00:00
Search period end: 28 April 2014 00:00
Orbit: 270 x 33591 km, 24.0° (Epoch: 16 April)

Date Brightness Start Highest point End Pass type
(mag) Time Alt. Az. Time Alt. Az. Time Alt. Az.
18 Apr 7.7 02:27:40 62° ENE 02:27:40 62° ENE 11:16:10 10° E visible
20 Apr 7.6 03:38:47 71° NW 11:55:36 73° NNE 12:34:09 10° ESE visible
21 Apr 11.6 04:02:34 10° ENE 06:04:40 17° ENE 07:12:47 10° ENE visible
22 Apr 7.2 04:49:36 44° WNW 13:31:08 88° NNE 13:49:33 10° ESE visible
23 Apr 8.3 00:29:51 26° ENE 00:29:51 26° ENE 09:00:26 10° E visible
24 Apr 6.5 06:00:08 19° WNW 14:52:30 69° SW 15:03:25 10° SE visible
25 Apr 7.8 01:40:16 51° ENE 01:40:16 51° ENE 10:25:25 10° E visible
26 Apr 5.9 07:20:55 10° WNW 16:08:41 40° SW 16:16:06 10° SSE visible
27 Apr 7.6 02:50:23 71° N 02:50:23 71° N 11:43:44 10° ESE visible
